Regional Weather Roundup
Issued by NWS Charleston, SC

Current Version | Previous Version | Text Only | Print | Product List | Glossary Off
Versions: 1 2 3 4 5 6 7 8 9 10 11 12 13 14 15 16 17 18 19 20 21 22 23 24 25 26 27 28 29 30 31 32 33 34 35 36 37 38 39 40 41 42 43 44 45 46 47 48 49 50

000
ASUS42 KCHS 010725
RWRCHS

REGIONAL WEATHER ROUNDUP
NATIONAL WEATHER SERVICE CHARLESTON SC
300 AM EDT SAT NOV 01 2014

NOTE: "FAIR" INDICATES FEW OR NO CLOUDS BELOW 12,000 FEET WITH NO
SIGNIFICANT WEATHER AND/OR OBSTRUCTIONS TO VISIBILITY.

NOT ALL STATIONS ARE QUALITY CONTROLLED BY THE NATIONAL
WEATHER SERVICE. USE DATA WITH CAUTION...ESPECIALLY
DEWPOINT OBSERVATIONS.

SCZ027-030-031-034>040-042>050-010800-
...SOUTH CAROLINA...

CITY           SKY/WX    TMP DP  RH WIND       PRES   REMARKS
N CHARLESTON   PTCLDY    53  48  83 W9        29.73F
WATERFRONT PRK   N/A     55 N/A N/A W9          N/A
FORT JOHNSON   NOT AVBL
JOHNS ISLAND   SUNNY     54  48  82 W9        29.73F
PINOPOLIS      NOT AVBL
MONCKS CORNER  FAIR      52  52 100 W3        29.72S
SUMMERVILLE    FAIR      50  50 100 SW3       29.74S
BEAUFORT MCAS    N/A    N/A N/A N/A MISG      29.77F
BEAUFORT ARPT  FAIR      55  46  71 W16       29.77S
HILTON HEAD IS CLEAR     55  45  67 W10G18    29.79S
GEORGETOWN     NOT AVBL
WALTERBORO     SUNNY     52  52 100 W8        29.75F
ORANGEBURG     CLEAR     51  43  74 W13G18    29.73F
BARNWELL       PTSUNNY   52  45  76 W7        29.76F
AIKEN          CLOUDY    50  37  62 W13       29.78S
MANNING        PTSUNNY   54  54 100 SW6       29.70S
KINGSTREE      NOT AVBL
COLUMBIA       LGT RAIN  52  48  86 NW8       29.72F
SUMTER         CLOUDY    52  52 100 W10       29.68F
FLORENCE       LGT RAIN  52  49  89 NE6       29.69F
MYRTLE BEACH   PTCLDY    52  46  82 CALM      29.69F
N MYRTLE BEACH CLOUDY    53  49  86 VRB3      29.68F

$$

GAZ063-065-086>088-099>101-113>116-118-119-134-136>141-150-010800-
...GEORGIA...

CITY           SKY/WX    TMP DP  RH WIND       PRES   REMARKS
SAVANNAH ARPT  CLEAR     53  43  68 W8        29.80F
HUNTER AAF     CLEAR     53  44  72 W15G22    29.78F
FORT STEWART   CLEAR     53  43  68 W14G20    29.81S
STATESBORO     NOT AVBL
SYLVANIA       CLOUDY    58  49  73 W16G24    29.80S
CLAXTON        CLOUDY    54  45  71 NW17      29.82F
THOMSON        CLOUDY    46  36  69 W15G29    29.86S
AUGUSTA-BUSH   CLOUDY    50  33  52 NW18G26   29.79S
AUGUSTA-DANIEL CLOUDY    49  33  54 W9G25     29.79S
SWAINSBORO     CLOUDY    48  34  57 NW20G29   29.86S
VIDALIA        CLOUDY    48  32  53 NW10G24   29.88R
ALMA           CLOUDY    55  43  63 NW17G26   29.86F
WAYCROSS       MOCLDY    57  47  71 NW9       29.86F
JESUP          PTSUNNY   55  46  71 NW8       29.84F
BRUNSWICK      CLEAR     54  45  71 W8        29.84F
SAINT SIMONS   PTCLDY    56  44  64 W10       29.83S

$$

SCZ027-028-034-036>038-045-046-048>050-GAZ119-141-010800-
...LAKE AND SUPPLEMENTAL COASTAL OBSERVATIONS...

STATION/POSITION TIME  TEMP    WIND        PRES    WAVE   SWELL
                       AIR SEA DIR/SP/G            HT/PER HT/PER/DIR
                 (UTC) (F)     (DEG/KT/KT) (MB)    (FT/S) (FT/S/D)
UPR LAKE MARION  NOT AVBL
WINYAH BAY       0700   54     270/  3     1005.0F
LAKE MURRAY      0700   50     340/  2/  7 1006.1F
ACE BASIN NERRS  0700   53     290/  2     1007.0S
FORT PULASKI     0700   58     270/ 14/ 19 1008.9F
SAPELO ISLAND    NOT AVBL

$$

ANZ835-935-AMZ111-154-330-350-352-354-374-450-454-472-010800-
...C-MAN AND BUOY OBSERVATIONS...

STATION/POSITION TIME  TEMP    WIND        PRES    WAVE   SWELL
                       AIR SEA DIR/SP/G            HT/PER HT/PER/DIR
                 (UTC) (F)     (DEG/KT/KT) (MB)    (FT/S) (FT/S/D)
FOLLY BEACH CMAN 0700   56     270/ 10/ 14 1007.1F
BUOY 41004       0700   65 77  240/ 10/ 12 1005.7F   3/ 6   3/ 6
BUOY 41008       0700   62 74  310/ 21/ 27 1008.6S   4/ 4   2/ 80/ 8
5E ST. MARYS GA  0700      75                N/A     3/ 4
FRYING PAN BUOY  0700   63 73   CALM  /  2 1006.3F   3/ 6   3/ 70/ 6
BUOY 41025       0700   60     340/ 19/ 23 1004.1F   5/ 7   2/ 30/ 8
CAPE LOOKOUT NC  0700   55     350/ 10/ 12 1005.7F
BUOY 41002       0647   72 77  250/ 16/ 17 1004.4F   4/ 8   3/ 90/ 8
BUOY 41010       0700   74 82  280/ 14/ 19 1008.6F   4/ 6   3/350/ 6
BUOY 41012       NOT AVBL
ST AUGUSTINE FL  0700   57     280/  6/  8 1011.5S
CAPERS NEARSHORE 0600   61     270/ 16/ 19   N/A
FRIPP NEARSHORE  NOT AVBL


$$



USA.gov is the U.S. government's official web portal to all federal, state and local government web resources and services.